Вернуться в каталог

STARLINK-34919

АктивенСвязьSSO
NORAD 65802·PAYLOAD·🇺🇸 United States

Запущен Sep 26, 2025 с Vandenberg Space Force Base

Loading…

Ближайшие Пролёты (ближайшие 24 часа)

TLE

СвежийSource: CelesTrak SupGP

Эпоха: Sep 15, 2026, 03:40 UTC

1 65802C 25218M   26258.15326389 -.00022604  00000+0 -70155-3 0  2583
2 65802  97.2848 115.6279 0001943  95.4885 347.1076 15.33455028    13

Отслеживайте STARLINK-34919 в реальном времени с AllMySat

Download on the App Store